Погода в Лопатине

Украина / Львовская область     50°12′54″N   24°51′37″E
темп.,
°C
ветер,
м/с
пор.,
м/с
влажн.,
%
обл.,
%
осадки,
мм/ч
давл.,
гПа
погр.,
м
31 июля, сб
сб3100:00+19юз36730 0.0 101093
03:00+18ююз347530 0.0 101056
06:00+17юз23860 0.0 100937
09:00+23юз336798 0.0 1010218
12:00+28ююз344927 0.0 1009998
15:00+30юз454138 0.0 10081956
18:00+29ююз4548100 0.0 1007862
21:00+18сз91295100 6.1 1009349
1 августа, вс
вс100:00+18в1396100 12.0 1010133
03:00+17зюз249785 12.0 1011122
06:00+16з229816 0.0 101143
09:00+20з22820 0.0 1011289
12:00+25ююз22614 0.0 1011836
15:00+28ю4548100 0.0 10091308
18:00+28юв585231 0.0 1006839
21:00+23ююв41266100 0.1 1005345
2 августа, пн
пн200:00+19ю388156 0.5 1005146
03:00+18ю339473 0.6 100655
06:00+16зюз4109712 0.0 1006247
09:00+17зсз6987100 0.0 1008634
12:00+18зсз5785100 0.2 1010675
15:00+17з4882100 0.4 1011639
18:00+18зсз477593 0.0 1011676
21:00+15зюз37925 0.0 1012182
3 августа, вт
вт300:00+14з3796100 0.0 1013161
03:00+13зюз349587 0.0 101490
06:00+14зюз35906 0.0 1015138
09:00+17з46745 0.0 1016416
12:00+21з455916 0.1 10161420
15:00+22з466019 1.3 10151481
18:00+23сз355588 0.4 10151005
21:00+17св11770 0.6 101511
4 августа, ср
ср400:00+16ююв338515 0.0 101645
03:00+15ююв337996 0.0 101632
06:00+14ююв358844 0.4 101569
09:00+19ююв487436 0.5 1015354
12:00+25юз4550100 0.0 1014971
15:00+27юз464253 0.0 10141924
18:00+27ююз2351100 0.0 10131240
21:00+19ю1268100 0.5 101315